GFSNE_850_spd_051.txt.gz
Wind_Speed
27 26 26 22 25 25 23 21 24 29 30 29 29 26 26 23 23 26 25 25 25 27 28 28 29 32 34 33 31 29 26 26 25 24 24 24 25 26
28 25 23 25 21 24 21 21 20 25 31 31 31 26 25 26 28 29 31 29 30 32 31 34 33 33 32 31 26 27 27 25 24 23 22 21 21 23
26 22 21 16 21 19 18 22 25 25 31 36 33 29 28 27 28 31 30 30 32 33 35 33 31 32 31 26 25 27 27 24 23 23 22 20 20 20
23 19 15 20 14 13 17 23 26 27 30 37 40 37 33 34 36 35 34 35 35 34 33 30 31 30 30 26 29 30 26 25 23 23 23 23 20 20
15 15 18 14 15 19 20 23 25 27 29 35 39 37 37 35 35 35 35 35 36 34 33 30 29 30 29 30 30 26 27 28 24 24 24 26 25 25
14 19 19 14 23 23 25 24 25 26 27 31 35 38 37 35 34 36 38 37 35 36 29 28 28 28 32 32 28 27 29 28 26 26 25 25 26 26
20 18 14 20 26 19 17 19 23 28 31 35 39 41 43 42 40 39 39 35 32 33 27 28 32 32 31 32 29 30 29 24 25 28 25 28 29 27
14 16 18 27 17 16 19 23 26 29 32 33 36 37 40 41 42 43 39 34 29 29 28 32 33 33 32 31 31 20 21 25 29 31 30 27 26 25
15 20 19 15 16 23 26 29 30 31 33 35 38 41 41 41 40 41 40 39 37 39 28 31 33 33 30 30 19 18 24 26 30 31 26 26 25 26
14 15 17 20 24 29 33 35 38 39 41 40 39 41 40 40 38 38 39 38 39 34 28 33 36 34 29 24 18 22 25 27 24 24 24 29 29 30
14 17 21 23 26 28 32 35 39 40 39 40 41 40 42 40 40 34 36 35 36 38 29 31 38 34 29 24 21 25 28 25 22 29 27 23 22 22
17 19 21 23 25 25 27 30 36 36 37 39 38 39 38 36 36 41 27 33 33 31 31 25 27 21 21 22 22 18 25 28 26 23 20 18 18 20
20 21 23 24 25 25 24 24 25 29 31 30 32 33 31 31 29 26 27 32 31 36 28 23 22 16 18 23 26 26 28 23 20 19 18 16 16 19
21 23 23 23 24 24 23 23 24 25 25 24 26 31 35 32 29 25 26 26 27 26 19 15 19 16 17 22 26 28 23 17 17 13 12 16 18 19
21 21 21 21 21 23 24 26 27 25 26 29 29 30 31 33 26 22 20 18 22 20 19 19 21 19 22 22 25 23 22 19 11 17 17 17 20 15
20 19 19 19 21 24 26 26 25 24 24 28 28 30 32 29 25 22 20 19 19 20 23 24 20 20 20 21 19 21 19 20 19 16 17 21 14 14
19 19 19 21 24 26 26 27 26 25 25 26 25 28 27 26 22 16 18 18 19 19 18 18 18 19 17 18 20 19 18 18 18 17 19 19 11 9
17 18 19 21 23 25 27 29 29 27 26 26 25 24 24 20 20 18 17 18 20 18 20 16 18 16 16 18 18 18 17 17 19 19 16 13 12 7
15 16 18 21 24 25 26 28 29 27 26 26 25 24 25 19 16 19 17 17 18 19 18 17 18 15 16 19 16 14 16 16 20 15 10 9 11 5
15 17 19 22 24 25 26 26 27 26 26 26 23 23 23 26 14 17 16 14 19 19 21 19 19 16 17 18 18 17 17 18 13 13 6 7 5 2
18 19 20 23 24 24 25 25 24 25 25 25 23 22 22 22 21 10 12 12 13 19 21 20 19 11 14 15 16 18 16 9 13 8 5 6 4 6
18 20 23 23 23 25 25 25 24 25 24 24 22 22 22 21 20 16 7 9 11 16 20 24 15 12 13 14 15 12 7 8 6 7 7 5 5 4
21 24 24 24 25 24 23 24 26 24 23 23 23 23 22 20 19 18 12 9 11 12 18 20 14 13 13 13 11 9 8 9 8 5 5 6 4 3

GFSNE_850_spd_054.txt.gz
Wind_Speed
30 30 27 28 27 26 22 22 23 30 29 32 27 26 26 28 29 28 26 25 27 29 30 31 30 29 30 27 27 27 26 25 23 23 22 22 22 23
29 29 28 28 24 19 20 22 28 28 29 28 27 28 29 30 31 31 32 33 30 30 33 34 34 33 30 27 28 29 27 28 26 24 22 22 22 21
28 28 26 23 17 20 22 25 23 26 33 35 34 32 32 32 30 32 34 34 37 39 39 40 39 36 33 27 30 30 29 30 26 24 23 22 22 22
27 25 23 18 18 18 16 17 19 22 28 34 33 34 34 34 35 32 33 37 42 45 39 45 39 33 34 29 31 31 29 30 25 26 26 25 25 24
23 21 19 16 18 19 16 19 23 26 27 31 36 36 37 32 33 35 37 37 40 40 43 38 40 39 32 31 33 30 30 30 27 27 26 25 26 26
20 19 17 20 21 16 21 22 19 20 22 27 32 36 37 36 36 36 39 38 39 39 42 42 43 37 36 33 34 31 29 26 25 28 27 25 26 26
18 17 18 20 14 18 22 16 18 22 26 29 33 36 38 38 37 37 36 36 38 37 39 42 40 36 39 31 35 31 25 27 29 23 24 28 29 30
16 17 19 16 18 24 20 21 22 26 30 32 33 36 40 39 39 37 36 36 39 45 38 35 37 35 36 33 33 27 26 23 20 22 27 29 30 28
16 17 17 21 25 23 23 24 26 29 33 37 41 41 44 42 40 41 38 36 40 37 33 37 35 42 30 33 32 27 22 20 21 24 28 30 27 27
18 20 22 23 22 24 27 29 30 31 31 33 34 37 38 39 37 40 41 46 50 41 35 35 35 35 26 30 30 26 21 20 22 26 30 27 28 32
18 19 19 20 23 25 27 29 30 30 28 28 28 28 29 27 26 30 31 29 34 39 38 30 30 30 19 26 29 29 18 19 22 23 27 32 28 25
16 18 19 20 21 23 25 27 29 29 31 32 33 31 29 27 24 21 25 27 28 31 26 26 27 29 23 22 21 18 15 16 21 25 21 22 19 21
17 18 18 19 21 22 23 23 25 29 31 33 36 35 32 29 28 24 22 25 25 29 31 26 28 18 16 16 10 12 16 18 20 16 17 15 14 15
17 17 18 19 21 22 21 22 24 27 28 31 32 33 32 31 30 29 23 22 22 23 27 30 28 15 16 17 18 17 17 14 15 15 9 14 14 14
17 18 19 19 18 18 19 21 22 23 25 27 29 29 28 28 29 30 23 21 18 19 16 23 17 16 16 19 19 16 14 14 11 10 14 15 14 16
17 16 17 17 17 18 19 20 20 21 23 24 25 27 27 26 25 21 21 19 21 21 15 12 15 19 23 21 17 14 13 14 13 13 15 15 16 13
17 17 17 18 18 19 21 22 22 22 23 23 23 24 24 24 25 19 17 17 19 19 19 12 10 12 17 19 17 14 15 14 13 14 16 17 13 12
16 17 18 19 20 21 23 25 25 24 23 23 23 23 23 23 24 24 16 15 20 19 19 13 12 14 17 18 16 17 14 13 12 13 16 16 14 11
16 17 18 19 21 22 23 25 26 25 24 23 23 22 22 22 21 23 18 13 20 18 16 12 12 16 18 20 15 13 12 12 12 15 10 10 14 10
18 18 19 20 21 23 24 25 26 26 24 24 22 22 22 23 21 20 21 13 15 17 15 16 16 16 19 19 14 12 12 12 14 13 9 8 9 4
18 18 19 21 22 24 24 25 26 25 24 24 22 21 20 22 19 19 18 17 5 7 14 17 15 14 14 13 16 14 12 14 10 12 10 7 5 6
19 20 21 22 24 24 24 25 24 24 23 23 22 21 19 19 19 18 18 20 11 8 11 14 16 17 18 16 13 11 11 8 8 8 10 9 5 2
21 22 22 23 24 24 23 23 23 24 21 21 21 20 19 19 18 19 18 16 15 10 10 13 15 17 16 13 11 9 6 6 6 8 8 7 7 5

GFSNE_850_spd_057.txt.gz
Wind_Speed
27 32 30 31 26 25 28 29 26 24 26 28 29 32 26 21 23 27 28 27 25 25 27 30 33 34 36 36 36 34 30 29 26 26 27 24 22 22
26 26 31 27 27 26 27 23 20 20 25 29 30 29 26 27 29 30 30 30 31 30 30 32 34 37 39 41 41 39 32 30 26 25 26 25 22 22
27 29 29 27 26 23 23 21 20 22 25 27 28 26 27 28 27 27 30 33 36 35 36 34 38 41 43 45 45 42 32 32 27 26 28 27 24 23
27 27 28 23 20 22 21 19 20 21 25 29 29 29 28 28 31 33 33 31 33 32 33 36 38 41 45 42 50 46 40 35 29 29 30 30 27 25
27 27 22 20 21 22 19 20 22 24 26 28 29 28 28 29 32 34 36 38 38 38 39 39 37 40 40 40 42 46 43 34 34 32 31 29 28 28
25 23 22 21 21 21 22 23 24 25 23 23 26 28 30 32 35 38 42 42 43 40 41 41 41 43 40 39 43 49 45 36 34 30 30 29 30 26
23 20 21 20 22 23 25 23 23 22 23 25 27 31 34 37 39 41 43 47 50 47 46 44 40 39 37 38 37 41 37 34 37 27 30 30 26 25
22 23 21 22 22 22 22 23 22 23 24 28 31 35 37 39 40 40 41 43 44 41 31 40 34 35 33 34 32 38 42 39 26 28 28 26 27 29
22 22 24 23 23 21 23 23 22 24 27 31 33 34 35 33 34 35 34 35 40 43 36 44 39 44 39 32 30 37 39 24 25 27 27 27 29 30
22 23 22 22 23 22 23 23 25 26 27 28 28 29 30 29 29 30 32 36 38 37 29 33 34 36 35 31 29 31 26 24 26 24 26 26 28 29
21 22 22 23 23 22 24 25 26 26 27 27 28 28 27 26 24 26 29 30 36 37 32 32 31 31 26 24 22 19 21 25 23 19 23 25 28 30
20 20 19 19 21 23 24 25 25 26 26 27 27 28 28 27 24 22 25 27 28 33 32 28 30 24 25 26 23 21 22 22 16 19 22 26 24 23
18 18 19 20 21 22 25 23 23 25 25 26 27 28 28 27 25 22 23 26 28 29 29 28 30 32 29 24 13 9 14 14 16 19 20 19 18 17
17 18 18 19 21 22 22 21 22 23 24 25 26 28 28 28 28 26 26 25 26 25 26 23 28 28 28 21 13 13 13 13 15 15 16 13 17 17
17 17 18 20 20 18 19 21 22 23 25 26 27 28 28 29 28 28 27 24 22 19 20 21 21 20 19 13 14 14 13 12 12 11 11 14 16 15
16 17 17 18 19 20 20 20 21 23 24 25 26 27 28 28 27 25 28 28 24 20 17 18 18 15 24 17 17 16 14 11 10 12 14 14 12 13
17 18 18 17 18 19 20 20 21 22 23 24 25 26 27 27 26 24 24 26 23 19 21 20 18 13 14 16 19 17 15 14 12 13 14 15 12 11
16 15 16 17 17 18 19 21 22 23 23 23 24 24 25 26 26 25 23 24 25 21 19 20 17 14 14 16 17 17 17 13 11 11 13 16 12 8
13 14 15 16 17 18 20 21 22 23 24 23 23 23 24 24 24 24 23 23 24 22 16 18 18 16 16 19 17 14 12 11 11 11 11 13 12 10
14 14 15 18 20 20 21 23 23 24 23 23 22 22 22 24 24 22 21 21 23 22 16 13 17 19 17 17 17 13 11 12 11 12 11 11 9 8
15 17 19 19 21 22 22 23 24 23 23 23 23 22 21 22 22 21 21 18 20 19 19 9 11 15 19 17 19 16 11 11 13 13 10 10 9 8
17 17 19 20 21 22 23 23 23 22 22 23 23 22 20 19 20 21 21 20 18 18 19 14 12 12 14 14 18 13 10 10 10 10 11 11 9 3
17 18 19 21 22 24 24 24 23 22 23 22 22 21 20 20 19 19 19 19 19 18 17 16 10 10 14 17 17 11 10 9 11 10 7 9 10 9

GFSNE_850_spd_063.txt.gz
Wind_Speed
33 34 30 28 28 29 28 24 25 20 24 22 22 22 22 22 22 24 24 24 25 25 25 25 26 28 31 32 34 36 37 40 43 43 42 41 39 35
34 35 31 28 28 26 24 27 26 26 18 21 21 21 21 24 25 24 25 23 22 22 23 25 27 29 30 31 33 36 39 42 43 44 45 45 42 39
32 34 34 29 29 27 28 26 25 25 26 26 22 22 22 23 24 25 25 23 22 22 23 25 28 30 32 35 37 39 40 41 42 43 44 44 42 42
30 27 31 30 30 29 28 28 27 27 27 25 23 23 21 22 25 23 21 21 22 24 26 28 29 30 32 35 37 39 42 44 44 44 41 41 42 43
31 30 33 33 34 32 29 29 27 28 26 25 22 21 21 22 21 20 20 22 23 24 25 25 26 27 29 31 32 35 37 40 41 43 43 40 40 42
34 30 32 33 34 30 30 32 29 28 23 22 21 20 20 21 20 22 23 24 23 23 26 24 28 29 31 33 34 34 35 37 37 35 35 36 38 36
29 31 29 30 28 31 31 29 27 25 23 21 21 19 19 19 20 22 24 24 25 24 23 27 32 34 33 32 34 34 34 34 35 35 31 33 30 31
32 30 28 30 31 28 27 25 24 23 22 21 21 18 20 22 22 22 23 23 19 23 29 33 33 34 33 32 31 31 29 29 29 30 28 26 23 27
31 30 32 31 29 27 25 25 24 24 22 20 18 20 20 21 22 22 23 24 24 27 31 34 32 32 27 28 28 25 22 24 24 23 20 23 20 23
31 31 31 29 25 25 24 25 25 22 19 17 19 20 20 20 21 23 24 25 28 28 26 31 28 30 26 25 25 22 20 20 20 21 20 19 24 16
29 26 24 23 23 24 24 22 20 18 16 18 18 18 19 19 21 21 22 25 27 23 27 24 25 26 26 28 19 21 21 20 18 19 13 11 11 14
23 23 22 21 20 20 20 18 15 14 16 16 16 16 15 17 18 21 24 24 25 25 14 19 22 21 23 20 16 21 22 23 17 16 15 14 15 12
21 21 20 19 18 17 14 12 14 15 15 15 15 15 16 18 19 20 20 26 28 28 26 25 27 26 22 29 26 21 22 21 16 14 16 14 14 14
15 15 16 15 13 10 12 13 14 13 13 15 15 18 19 19 19 23 27 28 27 29 28 25 31 28 29 29 26 21 19 16 12 10 11 12 14 16
12 12 11 10 10 11 12 11 12 15 16 18 20 18 18 22 28 27 26 25 26 26 24 23 25 28 27 30 29 22 19 15 16 13 12 13 15 14
13 12 9 7 9 11 12 15 18 18 16 17 19 22 23 25 24 25 25 25 27 27 23 20 22 23 29 26 27 28 20 16 14 16 15 16 16 16
8 6 6 8 11 15 18 18 16 16 20 21 21 23 23 24 23 22 23 24 24 26 26 22 19 22 25 28 23 22 21 22 21 15 16 15 17 17
7 9 12 14 16 16 15 16 19 20 20 22 22 22 22 22 23 22 22 21 22 23 24 23 22 21 18 20 24 23 23 20 18 19 18 14 14 13
10 12 13 13 13 14 15 16 17 19 20 21 21 21 22 22 22 21 20 20 20 20 20 21 17 15 16 17 17 18 20 21 15 16 15 15 14 11
8 8 9 10 11 13 14 16 17 19 20 21 21 22 21 20 20 19 18 19 19 20 21 17 15 14 14 16 20 14 13 18 18 15 14 14 14 14
7 7 8 10 12 14 16 18 19 20 22 22 22 21 19 20 21 19 18 20 21 19 20 18 17 18 18 16 20 19 13 15 18 15 14 13 10 10
7 8 10 12 14 16 18 20 20 20 20 19 19 19 19 19 19 17 16 17 18 18 20 20 19 16 17 15 17 17 15 15 17 17 16 15 10 9
8 9 12 14 17 19 20 20 22 23 23 23 21 19 18 17 16 15 16 16 17 18 18 19 18 16 16 17 17 15 14 13 17 16 14 11 13 12

GFSNE_850_spd_066.txt.gz
Wind_Speed
32 34 35 35 37 35 38 38 31 20 23 18 18 21 25 27 26 27 27 27 26 27 27 29 29 29 29 30 31 33 35 38 40 42 44 47 48 45
35 35 36 36 37 35 31 32 32 32 23 21 21 18 23 25 26 24 27 27 26 27 27 25 25 26 28 29 32 34 35 37 39 41 44 46 48 48
38 37 34 32 36 38 38 31 33 33 31 21 25 26 26 24 24 26 26 24 19 26 25 24 25 26 29 30 33 34 36 37 40 42 45 47 49 50
40 38 35 33 32 36 25 31 37 38 32 28 30 26 26 24 26 24 24 22 21 20 24 24 26 28 28 29 29 30 32 33 35 37 41 43 46 49
41 41 41 43 39 31 34 41 42 37 33 33 29 28 28 26 26 27 25 23 21 24 26 26 26 26 25 26 27 30 31 33 35 37 40 42 43 43
48 45 45 39 39 40 37 45 38 37 34 35 30 27 24 24 25 22 19 17 19 21 24 24 25 24 26 28 29 31 32 33 36 37 39 40 40 38
46 45 41 41 41 40 35 36 38 37 38 33 28 27 25 24 22 14 15 16 17 21 21 21 22 24 28 29 30 31 32 32 34 35 36 37 35 34
46 46 43 38 40 36 35 37 36 40 37 33 28 25 23 19 17 15 14 14 15 11 18 20 21 25 25 24 28 31 30 30 31 31 31 31 29 29
38 40 44 39 40 36 37 37 35 34 28 26 25 21 17 16 16 16 15 14 15 17 20 21 18 22 21 22 28 30 28 27 26 27 27 25 26 28
36 36 38 36 39 41 39 38 34 30 27 24 19 17 15 18 18 17 17 19 20 19 17 22 16 22 23 21 24 28 29 23 22 24 24 26 24 20
36 34 35 36 36 32 29 26 25 25 21 17 15 11 15 18 19 19 17 14 17 16 15 21 19 21 23 26 21 18 22 24 23 21 22 21 18 17
32 31 27 27 25 25 23 23 22 18 14 11 12 14 14 17 17 17 16 18 16 15 11 16 18 19 22 15 14 16 20 21 25 25 20 18 15 11
30 26 25 22 22 23 21 18 14 10 7 8 12 15 15 15 16 19 22 20 18 20 20 23 19 20 21 30 26 23 21 22 20 19 18 16 18 13
23 23 23 23 18 16 14 10 6 4 8 12 13 14 17 20 23 22 21 24 26 30 29 28 30 23 23 27 30 24 20 21 18 19 13 12 11 13
17 18 17 15 13 10 5 6 7 10 12 14 17 19 20 19 20 25 28 27 28 28 27 25 26 24 22 27 30 28 26 23 19 18 15 14 14 13
17 16 13 11 9 8 8 8 10 14 16 16 16 16 19 21 21 21 23 22 23 21 18 19 21 23 24 25 26 30 26 27 20 17 19 17 16 17
11 9 8 6 2 3 7 11 12 12 11 14 15 16 17 15 15 18 19 18 18 19 18 16 16 19 23 26 30 28 30 29 22 21 20 20 18 18
6 3 2 3 4 5 5 5 6 9 11 13 14 14 13 14 15 16 16 16 18 19 19 18 18 20 20 21 22 28 28 28 21 20 20 20 18 16
1 1 2 3 5 6 7 6 6 10 14 10 10 12 13 14 15 16 16 16 18 19 19 18 18 17 21 24 20 21 23 24 24 22 20 21 17 15
1 1 1 1 1 1 3 4 6 8 9 11 11 13 14 15 16 17 17 18 19 20 20 18 16 17 19 22 27 27 19 19 19 18 18 17 16 15
5 4 2 1 2 3 6 6 9 10 12 14 13 14 14 15 16 17 17 18 19 19 20 19 18 21 22 22 24 25 25 18 22 21 16 16 13 11
4 2 2 4 4 6 8 10 11 12 14 14 15 15 15 16 16 16 16 18 18 18 20 20 19 18 18 20 23 24 24 19 15 23 19 15 10 12
3 3 5 7 8 9 11 11 12 14 14 15 15 15 15 15 15 15 16 17 17 18 18 19 18 17 18 19 21 23 23 20 13 16 25 21 18 17

GFSNE_850_spd_069.txt.gz
Wind_Speed
40 35 33 33 32 35 36 38 38 29 31 33 32 33 30 26 35 29 29 31 32 31 31 31 32 34 32 32 32 32 32 32 34 36 37 39 41 43
42 39 35 35 32 35 36 36 35 37 35 32 32 28 28 30 33 30 30 33 30 28 29 32 32 30 31 30 30 30 31 31 33 35 36 38 40 42
39 39 38 39 39 36 38 39 33 39 37 38 32 33 32 27 35 29 30 30 29 30 30 31 29 29 29 29 29 30 31 31 33 33 35 37 39 40
42 38 42 44 39 37 36 38 36 31 31 38 40 42 38 41 36 28 30 28 25 19 25 28 28 26 28 29 30 29 30 30 31 33 35 36 37 39
44 43 47 51 45 43 42 44 45 41 39 42 43 42 41 39 32 31 33 30 26 24 27 29 29 30 29 28 28 28 29 31 33 34 35 36 37 39
47 47 53 55 52 50 52 49 51 48 46 46 47 45 45 41 35 34 31 27 24 18 19 23 26 28 27 28 27 27 30 32 34 33 35 36 37 38
50 55 57 56 55 54 48 49 47 48 51 49 49 47 45 41 38 34 28 22 17 18 21 24 23 24 23 26 29 31 34 36 35 35 35 36 36 35
48 47 45 45 49 51 46 44 47 44 49 46 48 50 49 42 30 24 22 21 17 16 16 17 22 23 25 28 28 30 33 34 34 33 34 34 33 32
46 50 50 51 44 38 41 44 42 39 40 43 45 44 38 27 23 19 19 19 19 17 16 22 24 28 29 26 23 29 35 33 32 32 30 31 31 30
52 54 50 46 42 40 39 39 41 39 38 36 34 29 19 17 13 13 16 17 19 21 21 26 23 28 25 25 28 29 31 31 28 26 27 29 30 30
46 47 46 44 42 40 39 40 38 30 24 18 18 18 18 14 10 13 17 15 20 19 16 20 21 27 22 25 32 21 19 22 23 25 28 29 31 28
40 41 41 38 35 32 28 29 28 25 22 17 14 12 9 7 11 12 17 20 18 16 17 14 15 17 26 23 17 20 23 26 24 25 29 30 29 24
33 32 29 27 22 19 18 20 18 16 11 9 7 5 9 12 15 16 18 19 20 21 18 22 20 21 24 31 30 25 28 31 22 21 26 25 23 20
21 19 16 14 15 17 17 15 12 10 5 5 5 9 11 10 11 13 18 21 22 23 23 27 32 29 25 31 34 28 22 26 25 23 26 22 22 18
15 17 18 18 17 15 12 8 6 4 6 7 7 9 12 15 17 19 20 21 22 23 23 23 24 24 23 27 30 29 31 32 27 23 25 22 22 23
21 20 18 13 8 5 3 1 4 5 6 8 11 10 13 15 15 14 16 16 17 17 16 16 19 20 24 25 25 29 27 29 30 28 30 22 21 21
16 14 10 7 4 2 2 4 5 5 5 10 11 11 13 13 13 13 14 16 17 18 17 16 16 19 22 24 28 29 29 29 28 30 27 27 21 24
10 9 9 7 5 3 1 2 4 5 8 10 10 10 11 12 12 13 14 16 16 17 18 18 19 20 22 25 22 27 26 26 26 26 26 30 23 20
10 10 9 7 4 3 2 3 3 8 10 6 8 10 11 12 14 14 15 16 17 17 18 18 19 20 24 27 24 18 22 24 31 33 27 20 22 19
8 7 6 5 4 3 2 0 2 5 6 9 11 12 13 14 15 15 15 17 18 19 20 20 19 20 22 22 29 33 29 26 21 23 25 20 24 18
7 5 4 4 2 1 3 5 8 7 10 10 11 12 13 14 16 17 17 18 19 19 20 20 19 23 27 26 30 31 27 24 24 25 26 25 16 20
7 4 4 3 3 3 5 7 7 8 10 11 13 14 14 14 15 16 16 17 17 18 20 21 21 21 21 22 27 29 29 28 26 24 24 23 19 12
4 4 5 5 5 5 6 6 7 8 9 10 11 12 13 13 14 14 15 16 17 18 19 20 20 19 21 21 25 27 26 27 26 23 13 15 12 10

GFSNE_850_spd_075.txt.gz
Wind_Speed
36 35 34 32 32 31 35 31 35 33 35 43 41 38 37 37 35 34 37 39 37 40 42 42 39 40 42 41 39 37 36 37 36 36 35 34 33 32
38 39 37 37 39 40 38 37 39 41 43 46 46 44 42 41 39 36 40 37 38 38 40 41 40 42 43 42 40 37 37 37 36 35 34 32 32 32
45 46 48 44 44 43 44 43 44 43 47 51 50 49 48 45 44 42 40 44 41 40 41 41 40 41 42 42 40 38 36 37 35 33 32 31 32 34
51 51 52 50 52 49 49 49 49 51 50 52 51 52 50 47 46 44 42 46 41 43 49 44 39 43 42 40 40 35 34 34 32 31 31 32 33 33
53 54 55 54 54 54 54 54 53 51 50 52 51 46 46 48 49 48 45 47 50 43 45 50 44 42 39 39 33 31 29 30 31 32 33 32 32 31
62 59 58 58 58 58 56 55 54 53 52 53 50 53 50 52 48 51 49 46 51 47 53 53 46 42 38 31 30 32 26 27 30 29 29 29 30 31
61 62 60 58 56 56 56 55 54 54 55 53 55 54 52 54 55 52 50 49 46 51 53 46 38 33 28 29 28 19 16 24 23 24 26 29 33 33
58 60 58 56 54 52 51 53 56 57 59 57 54 52 53 56 56 53 49 48 40 44 41 38 41 42 34 25 23 10 21 24 26 28 32 32 33 34
53 53 52 52 53 53 51 51 53 56 58 57 58 56 56 53 55 48 47 41 36 35 30 33 32 29 28 21 9 19 25 27 30 33 33 34 35 34
55 56 57 58 55 52 51 51 52 53 57 58 58 60 51 44 39 32 29 29 30 26 23 21 21 21 19 17 18 26 27 29 31 33 34 34 37 32
57 58 59 59 57 57 53 53 54 55 57 58 51 42 34 24 20 19 19 23 24 20 16 15 15 17 18 19 20 22 28 31 31 32 35 33 29 29
52 53 55 56 55 54 54 53 52 46 37 27 19 16 16 15 16 15 15 14 13 9 11 12 15 14 12 14 21 24 27 29 31 28 31 33 35 38
50 52 53 53 52 52 49 40 31 25 15 12 13 13 12 12 10 7 7 6 7 8 10 12 14 18 22 25 27 25 27 31 36 35 31 31 30 27
37 33 31 37 19 15 16 15 18 19 17 15 14 10 8 6 3 3 2 5 7 10 14 19 22 24 25 29 33 29 29 27 26 27 26 25 25 24
20 18 17 12 17 22 22 24 20 18 16 13 10 9 4 4 2 2 5 9 11 12 14 16 18 19 19 22 28 28 28 28 24 15 21 22 27 27
19 19 22 22 23 26 23 18 16 14 11 10 7 5 3 1 4 6 8 10 13 14 13 13 14 15 18 20 22 26 26 27 29 26 25 24 22 21
25 25 22 23 21 22 20 16 13 11 9 7 4 1 2 3 5 7 8 10 11 14 15 16 15 16 19 19 21 23 26 27 27 26 23 26 26 24
21 23 20 19 18 16 13 11 9 9 8 5 3 3 4 5 6 7 7 8 10 11 12 15 19 23 24 24 21 21 21 24 25 27 29 33 38 35
15 17 17 14 13 10 9 8 9 8 5 4 5 5 6 7 8 9 11 13 14 15 17 19 21 19 19 19 19 20 27 30 32 32 30 26 29 30
14 13 14 13 11 8 6 4 5 4 4 4 5 7 9 10 12 12 11 12 14 16 15 14 15 17 21 26 31 31 26 23 24 28 29 28 29 27
13 13 10 9 7 6 4 3 4 5 5 6 8 9 10 10 9 8 10 10 10 11 13 15 17 19 20 21 25 29 31 27 24 25 27 27 28 30
9 7 5 4 3 2 3 3 4 5 5 6 7 8 8 7 7 7 6 8 9 11 14 15 15 17 19 21 25 29 31 29 24 20 17 20 25 31
5 3 4 4 4 4 4 5 5 5 6 6 6 6 7 7 5 6 6 8 10 11 12 16 19 17 18 20 22 26 28 29 29 29 26 22 21 22

GFSNE_850_spd_081.txt.gz
Wind_Speed
36 39 40 41 40 37 36 35 29 31 35 37 36 31 29 32 33 36 38 40 38 39 40 40 39 40 37 38 43 47 49 49 50 52 51 49 47 45
42 41 41 41 40 39 38 37 34 40 44 46 43 42 37 38 39 42 45 45 45 42 42 41 42 43 43 43 40 42 44 49 55 54 52 51 51 48
41 43 43 42 43 41 42 43 46 44 47 50 48 51 51 49 46 46 48 50 49 45 44 43 42 44 42 44 44 42 46 45 49 51 49 51 53 49
47 47 47 45 46 46 48 49 51 49 52 55 54 55 56 54 54 54 55 54 53 49 47 42 41 40 39 38 41 44 44 47 47 49 49 52 50 48
47 48 48 48 50 51 52 52 52 51 53 56 59 58 60 60 60 58 58 56 53 50 46 44 44 44 43 42 40 43 44 48 48 47 50 54 53 50
51 51 52 53 53 53 54 56 58 58 58 58 59 61 60 59 58 57 57 54 53 50 49 49 49 46 45 48 44 41 43 45 47 50 52 52 49 45
57 56 56 58 58 58 58 61 61 61 61 59 52 51 52 50 49 51 54 52 54 55 55 56 52 53 51 48 46 41 40 43 48 47 44 42 42 43
56 56 55 54 56 56 57 58 58 56 57 57 55 51 51 50 51 51 54 53 49 53 50 49 47 47 48 44 40 39 38 41 41 36 35 36 37 38
49 50 51 53 53 53 54 52 51 52 55 58 61 58 57 57 54 51 50 54 54 52 52 51 43 39 35 32 30 33 35 34 31 30 31 33 34 27
47 48 49 48 49 49 49 50 49 48 52 53 58 61 63 63 62 59 57 53 51 52 44 27 25 23 21 19 20 20 21 23 24 24 24 22 20 20
45 45 53 55 54 54 54 55 56 57 57 57 58 60 61 65 65 68 64 57 39 28 23 18 19 18 15 15 15 16 16 17 18 18 19 19 20 23
48 52 55 58 58 57 58 55 53 56 53 50 47 51 50 40 26 20 19 21 21 7 6 8 9 10 8 10 12 13 15 17 17 17 18 22 24 27
42 42 42 50 56 58 59 51 42 39 36 19 8 10 8 7 7 5 6 7 2 3 5 4 4 6 5 4 8 9 12 15 18 19 21 25 28 28
22 24 27 30 26 25 28 22 14 16 12 9 9 10 9 8 11 10 8 7 6 4 3 1 3 6 7 9 11 14 16 18 20 21 22 23 23 23
1 1 1 2 4 5 11 15 15 13 13 11 13 12 10 8 7 6 5 6 4 3 3 5 6 8 10 12 13 16 19 19 19 19 20 24 27 27
12 12 11 13 16 18 17 16 16 16 14 14 13 10 7 4 3 5 6 6 6 7 10 10 10 11 11 13 16 18 20 17 22 24 27 30 30 29
12 14 16 17 17 17 17 17 15 13 11 10 8 6 6 6 7 8 7 7 6 7 8 9 10 11 11 14 16 18 21 23 24 27 29 33 31 30
9 13 15 14 14 13 13 12 10 9 9 7 6 6 6 6 6 7 7 7 7 7 9 12 14 14 13 9 11 17 21 24 24 24 26 31 34 31
9 12 12 11 12 10 9 8 8 7 6 6 5 6 7 7 7 8 8 8 7 8 10 11 13 15 18 20 20 16 25 25 27 27 27 29 34 36
9 9 9 8 8 7 7 7 7 6 6 6 6 6 6 6 6 7 8 8 8 9 9 10 11 13 15 19 23 24 20 24 26 30 32 33 35 35
6 5 6 5 5 5 6 6 5 5 6 6 7 7 7 8 8 8 8 8 7 7 9 10 12 13 14 16 20 25 23 21 22 26 30 32 35 38
5 5 5 4 5 5 5 5 6 6 6 7 7 8 7 7 6 7 7 7 8 9 9 10 11 13 15 18 22 25 29 28 23 22 20 24 27 33
4 5 4 5 5 5 5 5 5 6 6 6 7 7 7 8 8 8 8 8 8 8 9 11 12 13 15 18 21 25 26 28 30 32 31 22 21 26

GFSNE_850_spd_087.txt.gz
Wind_Speed
43 39 37 33 32 34 32 32 31 27 23 29 30 26 22 35 32 29 34 41 35 35 34 34 34 37 37 37 40 42 42 43 45 47 47 47 47 47
44 42 38 38 40 36 37 35 35 35 33 30 33 36 41 39 35 34 39 36 37 34 36 37 39 41 43 44 46 48 49 49 48 48 49 49 48 50
43 43 44 42 37 37 38 42 40 38 39 42 40 44 42 42 41 43 42 41 38 44 47 50 52 49 50 50 50 51 52 52 52 51 51 50 49 48
38 42 42 45 43 39 42 44 44 45 44 47 41 44 45 45 47 50 50 51 52 53 53 52 50 50 52 51 53 52 49 47 48 51 48 47 49 51
36 38 37 37 41 41 40 43 41 42 45 49 49 48 47 43 53 54 54 54 54 57 58 55 52 51 52 51 47 46 44 42 42 43 47 49 51 53
34 37 38 38 37 37 37 40 42 46 47 47 48 51 51 53 47 47 49 52 55 55 56 57 52 49 47 44 41 42 44 46 46 46 49 52 53 56
36 38 40 40 40 39 40 42 41 43 45 45 43 43 47 51 47 47 45 53 52 51 53 49 48 44 44 42 44 45 46 47 47 48 50 53 52 51
31 32 34 35 38 40 41 43 46 48 50 50 49 47 49 51 52 53 52 47 48 47 42 37 39 42 46 49 52 53 56 57 57 55 55 56 54 45
26 27 29 31 32 32 33 34 38 38 41 46 53 51 47 40 43 47 50 51 47 42 42 43 44 40 38 38 40 42 41 38 38 37 36 33 31 30
31 33 34 35 37 38 38 38 39 42 43 45 46 48 51 52 53 52 45 42 39 37 37 31 31 31 29 27 25 21 17 16 17 16 16 18 21 20
29 33 35 36 37 38 38 39 39 38 37 35 34 37 40 42 40 38 36 34 33 32 31 25 21 18 14 12 9 7 7 8 9 11 13 15 16 16
27 29 32 33 34 37 36 33 30 26 25 23 23 24 27 25 21 16 13 13 14 9 8 7 8 8 6 6 7 7 7 8 9 11 12 13 15 15
15 15 16 17 19 17 15 12 13 13 13 12 10 5 2 5 7 8 8 6 3 4 3 1 4 5 5 3 6 7 8 10 11 13 16 18 19 21
4 2 4 8 8 8 5 5 4 3 3 3 5 5 7 8 10 11 11 10 9 9 6 4 1 1 2 4 5 9 11 14 15 16 18 19 19 20
5 7 10 10 10 11 13 10 8 7 6 6 7 8 9 9 9 8 8 8 8 6 4 4 4 4 5 6 8 10 11 13 15 15 19 21 22 22
12 11 10 10 11 12 11 10 10 10 8 8 8 8 8 7 7 8 9 9 8 8 8 7 7 7 6 7 7 8 11 10 16 18 20 21 21 21
10 10 10 11 11 11 11 10 9 8 6 6 5 4 4 5 6 6 6 6 6 6 7 8 8 7 7 7 5 8 11 14 17 19 21 22 23 23
5 7 9 9 9 9 8 7 6 5 5 5 5 5 5 5 5 5 5 6 6 7 9 9 9 8 7 9 8 8 13 16 18 21 21 21 24 24
2 5 6 6 7 7 7 7 7 7 7 6 6 6 6 6 5 6 6 6 6 7 8 9 11 11 10 9 6 11 17 19 22 22 20 21 26 29
4 5 6 6 6 6 7 7 7 7 7 7 7 6 6 6 6 6 6 6 6 7 7 9 10 10 9 10 14 17 18 20 21 23 23 26 32 36
4 4 5 6 6 6 7 7 7 8 8 8 8 7 7 6 7 7 7 7 7 6 7 8 10 11 12 13 13 18 20 22 24 25 28 30 31 32
4 5 5 5 6 6 7 8 8 8 8 8 8 8 8 7 7 7 7 7 7 7 7 9 10 10 10 10 14 19 24 23 20 22 23 18 21 20
4 5 5 6 6 7 8 8 9 9 9 9 9 9 8 8 8 8 8 8 7 7 8 8 9 11 11 13 18 20 23 24 25 27 17 14 16 20

GFSNE_850_spd_090.txt.gz
Wind_Speed
36 36 35 34 29 23 22 20 20 20 23 20 22 24 25 26 27 26 25 35 38 33 32 38 39 36 37 37 39 41 42 42 42 44 46 47 49 50
37 39 38 37 28 33 31 30 29 28 28 26 25 20 29 30 32 37 39 39 43 37 39 36 38 42 38 38 41 44 45 45 47 51 52 53 53 54
36 39 37 44 39 36 35 36 37 37 34 36 27 27 27 33 40 44 44 41 41 40 40 39 40 40 42 48 48 48 48 51 54 54 54 55 56 55
31 38 39 44 40 37 38 40 41 39 43 49 49 50 51 48 46 43 44 39 39 42 44 43 43 45 50 51 53 52 52 54 55 56 54 54 54 53
43 43 43 43 39 40 42 49 46 47 46 42 46 39 39 37 40 41 41 40 40 42 45 48 49 47 46 46 46 46 47 51 51 51 51 52 51 51
40 44 39 40 43 40 40 39 43 43 43 41 43 44 44 47 39 40 42 41 43 43 43 41 43 46 43 44 46 47 46 45 47 48 49 51 51 52
27 32 37 40 39 37 38 37 33 32 34 35 36 40 43 41 38 39 40 46 47 42 43 44 41 36 37 46 50 50 48 48 49 49 52 52 53 53
29 29 32 34 35 36 37 36 36 38 38 37 38 42 45 45 47 49 49 44 42 38 39 38 40 39 43 45 46 49 50 50 51 54 56 58 60 56
24 26 28 29 31 31 32 33 33 35 38 41 48 49 43 34 33 36 39 38 36 34 30 30 30 31 33 34 39 42 45 44 45 45 43 42 41 38
26 28 29 30 31 31 32 34 36 38 39 42 41 41 40 39 37 37 35 34 39 41 41 34 35 36 36 32 29 27 23 19 17 16 15 14 15 17
32 33 33 33 33 34 33 34 33 34 37 34 34 36 34 35 34 31 28 25 23 22 22 21 20 18 17 15 14 13 12 13 13 13 14 15 15 16
21 22 23 23 25 27 26 27 27 26 23 18 18 18 18 18 14 12 10 9 10 10 11 9 10 9 7 12 13 13 13 14 14 15 17 18 17 17
9 8 8 9 8 7 7 8 10 10 9 9 9 7 6 6 6 6 6 5 3 2 3 3 5 7 9 9 12 12 13 14 15 17 19 20 20 21
1 1 4 5 5 4 4 8 6 3 2 1 1 2 3 5 6 7 7 6 5 4 2 2 4 5 6 5 6 10 13 16 16 16 18 20 20 21
8 11 11 10 10 11 12 9 7 5 4 3 4 5 5 5 6 7 7 6 6 5 5 5 5 6 6 6 8 8 10 8 10 12 15 16 17 18
14 13 11 10 9 10 9 8 6 6 5 4 4 4 5 5 6 7 6 6 5 7 7 7 6 6 5 6 6 7 9 9 12 13 15 16 17 17
11 10 9 8 9 9 8 6 5 4 4 5 5 6 6 7 7 7 6 6 5 6 8 8 8 7 6 6 5 7 10 11 13 15 16 17 18 18
5 7 7 7 7 7 6 5 4 4 5 5 6 6 6 7 6 7 6 6 5 7 8 9 10 7 7 10 12 7 10 13 15 17 16 18 21 19
4 6 6 6 6 6 6 5 5 5 5 5 5 5 5 6 7 7 7 7 6 6 7 8 8 9 8 9 9 11 14 16 18 18 17 18 23 25
6 7 7 6 6 6 5 5 5 5 5 5 5 5 6 6 6 6 6 6 6 7 7 7 8 8 7 10 13 13 18 20 17 19 21 22 26 27
6 6 6 6 6 5 5 5 5 6 6 6 6 6 7 7 6 6 6 10 8 8 8 9 9 12 10 12 13 15 15 17 22 20 20 23 23 26
6 6 6 5 5 5 5 5 6 7 7 7 7 7 7 6 6 7 7 7 8 8 9 10 10 10 9 11 14 17 18 19 17 18 20 20 18 17
6 6 5 4 4 5 5 6 6 7 7 7 7 8 8 7 8 8 8 8 8 9 10 11 11 10 11 12 15 17 18 20 20 20 16 18 17 18

GFSNE_850_spd_096.txt.gz
Wind_Speed
40 35 36 33 31 25 20 13 14 17 19 17 15 18 17 19 19 23 25 27 29 29 28 25 24 24 28 31 33 41 40 39 35 35 40 40 39 39
38 35 37 36 34 31 25 18 15 13 17 13 8 13 13 15 17 19 20 21 24 25 30 31 30 32 37 42 44 41 36 38 39 40 40 43 44 42
35 34 33 35 33 30 28 27 27 20 17 22 19 17 17 19 21 26 28 32 31 34 37 40 38 45 44 36 35 39 42 44 43 42 42 44 45 50
36 33 30 33 32 29 28 31 34 34 31 29 31 30 30 30 32 35 37 37 40 43 43 45 47 44 38 38 37 35 37 38 41 41 42 44 48 50
32 26 27 30 33 35 34 34 32 29 30 32 35 32 35 36 36 38 42 40 36 37 33 40 40 38 44 42 41 43 42 44 45 47 47 49 48 48
29 26 28 32 38 38 39 39 37 38 34 33 34 38 39 41 40 38 37 31 35 31 30 33 36 35 34 34 35 41 44 45 45 46 50 52 53 54
26 24 23 20 23 31 33 35 38 35 35 33 37 40 40 39 35 30 28 30 30 27 30 30 37 37 40 45 44 42 43 38 37 37 38 39 41 42
30 27 22 22 28 32 30 30 31 30 28 29 32 34 39 32 26 27 30 29 32 34 35 33 31 29 34 32 32 33 36 40 42 45 44 38 35 33
25 25 22 26 24 24 26 31 33 34 35 36 37 38 33 36 34 32 35 36 32 33 32 33 33 33 33 32 32 31 29 29 29 26 23 22 20 19
20 21 23 23 24 29 30 29 31 33 34 36 36 34 32 32 32 29 28 26 26 28 27 24 24 23 23 22 22 22 22 22 20 18 16 17 18 19
18 20 22 23 25 24 25 27 27 27 27 28 28 28 24 27 27 22 19 18 18 17 16 15 16 16 16 15 15 15 14 15 16 17 17 17 18 19
22 23 25 23 23 25 22 19 18 15 15 17 12 10 9 7 5 6 8 9 10 10 9 8 8 8 5 10 11 15 16 17 18 18 20 21 20 20
12 8 7 9 9 12 11 11 11 10 7 6 5 3 0 1 0 0 1 2 2 3 4 4 6 5 5 7 13 15 17 19 21 20 19 21 22 23
11 11 11 7 4 4 6 10 9 8 5 3 3 3 3 4 3 3 2 2 3 5 6 7 7 9 9 9 7 10 9 13 15 18 19 22 22 21
16 16 14 13 12 12 12 10 7 7 6 6 7 7 6 4 4 4 5 6 7 8 7 8 8 8 8 7 10 11 13 14 12 15 21 23 22 21
18 17 15 14 12 12 11 10 9 8 9 9 9 7 5 4 4 4 2 4 1 4 12 13 10 8 8 8 10 8 7 10 17 20 23 23 20 19
13 13 12 12 11 10 10 9 8 7 7 6 5 4 4 2 5 4 3 2 1 4 7 12 12 10 7 10 11 11 13 16 19 22 23 24 20 20
10 11 11 11 10 8 7 7 6 5 5 3 3 3 4 5 4 5 3 2 3 4 6 12 17 14 5 6 10 14 18 19 20 20 21 24 25 21
10 12 11 10 8 7 5 4 4 4 3 3 3 3 3 3 4 4 9 6 4 3 6 9 12 16 15 14 13 14 18 16 21 26 23 25 26 25
9 9 9 7 5 4 3 3 3 2 2 3 3 3 2 3 6 4 6 10 8 7 7 5 10 15 18 16 17 16 13 17 23 23 29 26 21 20
7 6 6 5 3 3 3 5 4 3 2 3 4 4 3 2 4 5 6 8 5 7 8 7 11 12 14 15 17 18 19 18 16 21 22 26 29 24
6 4 3 3 3 4 4 1 2 4 3 3 5 5 3 2 5 3 6 7 6 9 12 11 14 9 12 15 18 20 21 21 16 16 20 16 22 23
4 2 1 0 1 2 2 4 3 5 5 4 5 4 2 3 5 3 5 6 8 8 11 16 17 8 10 11 15 20 22 22 22 22 27 20 18 18

GFSNE_850_spd_102.txt.gz
Wind_Speed
42 47 51 51 39 44 36 36 35 29 34 34 33 32 29 26 26 22 20 18 18 18 20 21 23 23 25 26 26 27 28 29 27 27 31 35 36 38
42 47 47 51 42 38 36 38 34 32 33 38 35 29 28 23 23 22 21 18 17 17 19 17 16 19 21 23 27 29 35 32 35 36 37 38 38 37
45 42 47 53 46 39 34 34 35 30 33 31 35 29 23 24 22 21 21 22 18 16 17 23 25 26 26 29 31 32 35 37 40 44 45 45 42 41
44 51 51 55 52 44 30 34 31 34 34 28 29 29 28 24 23 21 24 22 20 21 24 28 28 30 32 33 34 36 37 39 41 43 46 44 41 39
38 43 48 54 51 50 34 32 33 26 27 22 29 26 26 22 23 24 21 22 24 25 28 32 35 33 33 34 34 35 35 36 36 37 38 37 32 35
35 43 51 50 50 51 41 28 29 30 25 26 23 24 25 25 24 27 24 25 27 28 29 30 31 29 27 29 31 33 36 34 36 35 33 34 35 37
34 33 44 46 53 49 45 41 34 29 30 30 32 34 36 36 34 31 30 28 29 30 29 27 28 28 27 30 28 32 33 31 31 33 31 34 36 36
36 38 35 34 36 42 40 41 42 35 37 44 44 36 35 37 35 33 31 30 28 30 31 30 27 25 25 25 24 27 26 27 29 29 27 25 25 24
32 35 34 34 34 37 29 32 37 36 37 36 35 36 36 35 33 31 30 27 29 28 24 25 25 23 23 23 22 21 20 21 20 21 19 17 17 17
20 19 22 23 25 22 21 29 31 33 31 32 33 33 31 29 28 26 26 28 28 27 23 22 22 21 20 16 15 14 14 14 10 9 10 12 14 15
21 23 22 23 26 26 27 29 31 29 29 30 31 33 32 32 32 33 32 30 27 22 20 18 16 14 12 12 9 7 6 5 6 7 9 11 14 15
19 23 25 27 31 28 28 31 30 32 32 31 30 32 32 30 28 21 19 19 19 16 15 13 12 10 6 7 5 5 6 7 9 10 11 13 16 18
16 15 15 17 18 18 19 24 24 25 21 18 16 14 13 12 11 10 10 9 10 11 9 10 9 6 6 6 5 6 7 10 10 12 14 17 20 21
13 15 14 13 15 16 17 17 18 17 14 13 11 12 10 8 7 5 5 5 7 6 6 4 4 5 7 7 7 7 10 12 14 15 17 18 20 24
16 15 13 13 15 16 18 17 15 13 13 13 12 11 8 7 7 7 6 6 4 3 1 1 3 6 8 7 8 10 12 14 16 18 19 21 26 27
20 19 18 17 16 17 14 12 11 11 10 10 11 11 11 9 6 4 4 3 2 2 3 4 5 6 7 7 8 9 10 10 15 19 21 21 19 19
13 13 12 12 13 13 13 12 12 11 9 8 7 8 7 6 5 5 4 4 3 3 4 7 7 8 6 5 7 11 13 15 18 20 22 24 21 18
10 13 14 13 13 12 11 11 10 8 7 6 4 4 4 4 3 3 4 5 5 5 7 8 9 6 5 6 8 10 12 14 15 18 21 24 27 22
8 11 11 10 10 9 8 7 6 5 5 4 4 4 3 2 2 2 2 3 5 5 5 6 8 9 10 9 5 7 13 14 16 20 22 24 28 27
7 8 8 7 6 5 5 5 5 5 5 5 4 2 1 1 2 2 2 2 4 4 4 7 9 9 10 11 12 13 10 13 18 23 27 28 28 28
6 5 5 5 5 5 5 4 4 3 3 2 1 2 3 2 3 2 2 3 4 5 6 7 9 10 12 13 13 16 15 14 17 21 25 29 32 36
5 3 4 3 3 2 2 2 1 0 0 0 1 2 3 3 3 4 4 5 6 7 8 10 11 11 10 9 11 15 17 18 17 18 17 20 25 27
3 2 1 1 0 1 1 1 0 0 1 2 2 3 4 4 5 5 5 5 6 7 8 9 10 9 9 9 10 13 16 18 22 25 22 22 22 22

GFSNE_850_spd_105.txt.gz
Wind_Speed
43 43 43 42 40 43 42 40 37 26 36 36 36 35 33 30 26 24 24 21 22 22 21 21 21 21 21 22 21 23 23 25 27 28 28 29 31 32
42 42 44 46 44 48 47 47 37 31 30 33 32 34 32 31 27 25 24 22 20 19 19 20 20 20 21 21 21 24 25 28 30 32 34 36 38 40
40 44 41 46 44 49 49 50 44 34 34 24 24 29 31 27 27 25 23 23 21 20 19 19 17 17 20 22 25 27 30 30 31 35 36 40 42 43
41 45 45 49 47 52 51 48 45 42 38 30 30 26 32 30 26 26 22 22 25 26 23 21 20 23 27 30 36 35 35 36 38 40 41 42 43 43
41 45 49 49 50 48 56 48 45 41 35 34 34 33 36 33 27 26 27 25 25 26 23 23 29 31 32 35 38 41 39 41 40 39 39 36 39 37
38 48 46 53 44 48 54 49 46 41 39 39 35 30 28 31 32 29 28 26 30 26 28 31 32 32 33 35 36 36 36 34 33 33 32 34 37 34
36 36 45 43 45 44 54 53 43 40 32 37 36 36 34 38 32 24 25 24 26 28 32 32 33 33 32 30 32 32 30 29 29 30 30 32 32 31
33 29 33 34 40 46 47 56 43 41 38 34 32 32 31 28 28 28 28 28 35 34 32 31 32 31 33 32 31 25 27 29 26 30 30 28 28 26
26 31 29 27 34 40 49 55 37 37 34 34 36 33 34 32 30 33 40 34 37 32 30 29 30 31 27 26 24 24 24 22 19 20 21 20 19 17
16 24 27 27 29 42 43 51 44 33 40 41 44 42 42 43 39 34 34 37 31 29 30 30 31 28 24 22 19 18 17 16 14 14 13 14 14 14
9 8 14 16 23 23 25 26 30 33 35 41 41 39 40 36 33 33 35 35 33 31 27 27 26 23 19 16 14 11 8 8 8 9 11 12 14 15
13 14 14 13 13 15 16 15 19 24 26 27 31 32 33 34 34 34 27 29 31 25 22 20 17 17 11 11 10 10 9 9 10 10 11 13 16 18
10 10 15 17 18 19 19 20 22 23 22 19 20 20 20 19 19 19 19 19 19 16 13 16 15 14 10 10 10 10 10 9 10 11 13 15 18 21
8 10 10 10 12 15 16 18 19 21 17 14 13 13 12 11 10 11 11 10 10 8 11 9 7 9 10 12 11 11 10 10 11 12 14 16 18 22
12 12 9 7 7 11 15 16 16 14 14 13 13 13 12 10 10 9 7 6 6 6 6 7 6 7 8 9 9 10 11 11 13 15 16 17 20 23
18 18 17 15 15 17 16 16 15 13 12 13 14 13 11 9 9 8 8 9 7 7 5 3 1 2 2 4 6 7 8 8 11 15 18 18 18 20
12 14 17 17 18 17 16 16 16 15 13 13 13 12 10 8 7 6 4 3 3 3 2 3 3 2 1 2 4 6 8 11 14 17 19 21 20 20
9 12 15 15 16 15 15 15 14 12 12 11 10 10 9 8 6 6 4 3 2 1 1 2 3 3 2 2 3 6 9 12 15 17 20 23 25 22
10 13 13 12 12 11 9 9 9 9 8 6 6 6 5 4 4 3 2 2 2 1 1 4 6 6 4 2 4 9 12 15 17 19 21 23 25 26
10 10 9 8 7 6 6 5 5 4 4 3 3 3 3 2 3 3 3 1 1 2 3 6 7 8 8 8 8 10 11 15 18 21 24 25 26 27
8 7 8 7 7 7 6 6 5 5 4 3 2 2 2 1 1 1 1 1 2 3 5 6 7 7 8 9 9 12 11 12 14 18 22 27 30 34
8 7 7 6 6 6 5 4 4 4 3 2 1 1 1 1 1 2 3 3 4 4 5 6 6 6 6 6 8 11 13 14 14 15 16 18 23 26
5 5 4 4 4 4 4 4 4 3 2 1 1 2 1 2 3 3 4 4 4 5 5 6 6 6 6 6 8 11 14 17 20 21 15 16 18 21